Weather History for Paris Le Bourget, France

Change the Weather History Date:

Monday, December 3, 2012

  Actual Average Record
Temperature  
Mean Temperature 42 °F -  
Max Temperature 53 °F 43 °F 55 °F (1999)
Min Temperature 30 °F 36 °F 24 °F (2010)
Degree Days  
Heating Degree Days 24    
Moisture  
Dew Point 39 °F    
Average Humidity 87    
Maximum Humidity 100    
Minimum Humidity 71    
Precipitation  
Precipitation 0.00 in 0.07 in - ()
Sea Level Pressure  
Sea Level Pressure 29.90 in    
Wind  
Wind Speed 6 mph ()    
Max Wind Speed 18 mph    
Max Gust Speed 32 mph    
Visibility 5.7 miles    
Events Rain    
Averages and records for this station are not official NWS values.
T = Trace of Precipitation, MM = Missing Value Source: Averaged Metar Reports

Daily Weather History Graph

Daily Weather History Graph

Search for Another Location

Airport:

Trip Planner

Search our weather history database for the weather conditions in past years. The results will help you decide how hot, cold, wet, or windy it might be!

Date:

Astronomy

Dec. 03, 2012 Rise Set
Actual Time 8:25 AM CET 4:54 PM CET
Civil Twilight 7:49 AM CET 5:31 PM CET
Nautical Twilight 7:09 AM CET 6:11 PM CET
Astronomical Twilight 6:30 AM CET 6:49 PM CET
Moon 9:39 PM CET (12/3) 11:29 AM CET (12/3)
Length of Visible Light 9h 42m
Length of Day
8h 28m
Waning Gibbous, 80% of the Moon is Illuminated
Dec 3
Waning Gibbous
Dec 6
Last Quarter
Dec 13
New
Dec 20
First Quarter
Dec 28
Full

Hourly Weather History & Observations

Time (CET) Temp. Windchill Dew Point Humidity Pressure Visibility Wind Dir Wind Speed Gust Speed Precip Events Conditions
12:00 AM 30.2 °F - 28.4 °F 93% 30.06 in 4.3 mi East 1.2 mph - N/A   Unknown
12:30 AM 32.0 °F - 30.2 °F 93% 30.06 in 4.3 mi East 2.3 mph - N/A   Unknown
1:00 AM 32.0 °F - 30.2 °F 93% 30.06 in 3.7 mi Calm Calm - N/A   Unknown
1:30 AM 33.8 °F - 30.2 °F 87% 30.06 in 5.0 mi Calm Calm - N/A   Unknown
2:00 AM 33.8 °F 30.8 °F 30.2 °F 87% 30.06 in 6.2 mi SSE 3.5 mph - N/A   Unknown
2:30 AM 33.8 °F 30.8 °F 32.0 °F 93% 30.06 in 6.2 mi South 3.5 mph - N/A   Overcast
3:00 AM 35.6 °F 32.8 °F 32.0 °F 87% 30.06 in 6.2 mi SSE 3.5 mph - N/A   Overcast
3:30 AM 37.4 °F 30.8 °F 33.8 °F 87% 30.06 in 6.2 mi SW 9.2 mph - N/A   Mostly Cloudy
4:00 AM 39.2 °F 33.0 °F 33.8 °F 81% 30.06 in 6.2 mi SSW 9.2 mph - N/A Rain Light Rain
4:30 AM 37.4 °F 33.8 °F 35.6 °F 93% 30.04 in 6.2 mi SW 4.6 mph - N/A Rain Light Rain
5:00 AM 39.2 °F 33.6 °F 35.6 °F 87% 30.04 in 6.2 mi SSW 8.1 mph - N/A Rain Light Rain
5:30 AM 39.2 °F 33.6 °F 35.6 °F 87% 30.01 in 6.2 mi South 8.1 mph - N/A Rain Light Rain
6:00 AM 39.2 °F 32.0 °F 37.4 °F 93% 30.01 in 3.7 mi SSW 11.5 mph - N/A Rain Light Rain
6:30 AM 37.4 °F 30.3 °F 37.4 °F 100% 30.01 in 3.7 mi South 10.4 mph - N/A Rain Light Rain
7:00 AM 39.2 °F 32.0 °F 37.4 °F 93% 29.98 in 5.6 mi South 11.5 mph - N/A Rain Light Rain
7:30 AM 39.2 °F 32.0 °F 37.4 °F 93% 29.98 in 6.2 mi South 11.5 mph - N/A Rain Light Rain
8:00 AM 39.2 °F 32.5 °F 37.4 °F 93% 29.95 in 5.0 mi South 10.4 mph - N/A Rain Light Rain
8:30 AM 39.2 °F 31.6 °F 37.4 °F 93% 29.95 in - South 12.7 mph - N/A Rain Light Rain
9:00 AM 39.2 °F 31.6 °F 39.2 °F 100% 29.92 in 4.3 mi SSW 12.7 mph - N/A Rain Light Rain
9:30 AM 41.0 °F 34.3 °F 39.2 °F 93% 29.92 in 3.7 mi SSW 11.5 mph - N/A   Light Drizzle
10:00 AM 41.0 °F 34.7 °F 39.2 °F 93% 29.92 in 3.7 mi SSW 10.4 mph - N/A Rain Light Rain
10:30 AM 42.8 °F 36.6 °F 41.0 °F 93% 29.89 in 6.2 mi SSW 11.5 mph - N/A Rain Light Rain
11:00 AM 42.8 °F 37.0 °F 41.0 °F 93% 29.89 in 4.3 mi SSW 10.4 mph - N/A   Overcast
11:30 AM 44.6 °F 40.2 °F 44.6 °F 100% 29.89 in 6.2 mi SSW 8.1 mph - N/A   Overcast
12:00 PM 46.4 °F 41.9 °F 46.4 °F 100% 29.86 in 6.2 mi SW 9.2 mph - N/A   Overcast
12:30 PM 48.2 °F - 46.4 °F 93% 29.86 in 6.2 mi WSW 9.2 mph - N/A   Overcast
1:00 PM 50.0 °F - 48.2 °F 94% 29.86 in 6.2 mi WSW 6.9 mph - N/A   Overcast
1:30 PM 50.0 °F - 48.2 °F 94% 29.83 in 6.2 mi WSW 8.1 mph - N/A   Overcast
2:00 PM 51.8 °F - 50.0 °F 94% 29.83 in 6.2 mi WSW 9.2 mph - N/A   Overcast
2:30 PM 51.8 °F - 50.0 °F 94% 29.83 in 6.2 mi WSW 9.2 mph - N/A   Overcast
3:00 PM 51.8 °F - 50.0 °F 94% 29.83 in 6.2 mi WSW 10.4 mph - N/A   Overcast
3:30 PM 53.6 °F - 46.4 °F 77% 29.83 in 6.2 mi West 13.8 mph - N/A   Mostly Cloudy
4:00 PM 51.8 °F - 44.6 °F 76% 29.80 in 6.2 mi West 18.4 mph 32.2 mph N/A   Mostly Cloudy
4:30 PM 50.0 °F - 42.8 °F 76% 29.83 in 6.2 mi West 15.0 mph - N/A   Overcast
5:00 PM 50.0 °F - 41.0 °F 71% 29.83 in 6.2 mi West 10.4 mph - N/A   Overcast
5:30 PM 50.0 °F - 41.0 °F 71% 29.83 in 6.2 mi West 9.2 mph - N/A   Overcast
6:00 PM 48.2 °F - 41.0 °F 76% 29.83 in 6.2 mi West 6.9 mph - N/A   Overcast
6:30 PM 46.4 °F 42.9 °F 39.2 °F 76% 29.83 in 6.2 mi West 6.9 mph - N/A   Unknown
7:00 PM 46.4 °F 42.4 °F 39.2 °F 76% 29.83 in 6.2 mi West 8.1 mph - N/A   Unknown
7:30 PM 44.6 °F 39.7 °F 39.2 °F 81% 29.83 in 6.2 mi West 9.2 mph - N/A   Unknown
8:00 PM 44.6 °F 42.2 °F 39.2 °F 81% 29.80 in 6.2 mi WSW 4.6 mph - N/A   Unknown
8:30 PM 44.6 °F 43.1 °F 39.2 °F 81% 29.80 in 6.2 mi WSW 3.5 mph - N/A   Unknown
9:00 PM 46.4 °F 45.2 °F 39.2 °F 76% 29.77 in 6.2 mi SSW 3.5 mph - N/A   Unknown
9:30 PM 46.4 °F 43.5 °F 41.0 °F 81% 29.77 in 6.2 mi SW 5.8 mph - N/A   Mostly Cloudy
10:00 PM 46.4 °F 44.3 °F 39.2 °F 76% 29.74 in 6.2 mi SW 4.6 mph - N/A   Overcast
10:30 PM 46.4 °F 45.2 °F 41.0 °F 81% 29.74 in 6.2 mi Variable 3.5 mph - N/A   Overcast
11:00 PM 44.6 °F - 39.2 °F 81% 29.71 in 6.2 mi Variable 2.3 mph - N/A   Overcast
11:30 PM 44.6 °F 40.7 °F 41.0 °F 87% 29.68 in 6.2 mi SSE 6.9 mph - N/A Rain Rain